Wind_Speed
39 40 42 43 41 39 44 45 54 62 68 72 71 58 40 28 27 29 34 39 48 48 43 36 46 56 56 65 64 53 64 66 63 63 57 54 55 58 51 51 52 51 56 63 48
39 40 42 42 43 40 45 50 56 64 70 74 67 51 33 28 28 33 37 38 25 16 18 21 45 61 58 65 69 55 68 58 59 58 57 55 56 53 54 52 47 48 51 47 42
39 41 42 43 42 42 44 52 59 66 72 72 61 43 32 30 30 36 36 37 18 16 22 22 40 60 60 68 67 65 72 49 61 59 58 59 57 55 55 51 52 45 48 49 43
39 42 42 43 40 41 45 54 61 69 74 69 53 40 32 32 37 38 40 29 30 28 22 27 43 56 62 68 76 50 68 52 58 57 58 59 57 56 53 50 52 52 39 42 49
39 40 42 42 38 41 48 57 63 69 72 63 47 37 36 38 40 43 38 22 39 28 26 29 46 52 58 62 67 59 66 44 58 56 55 59 58 54 56 50 46 46 44 42 40
39 41 41 41 39 42 51 59 64 71 68 56 43 38 40 42 42 38 30 21 45 36 27 31 43 53 54 64 57 62 63 52 47 57 56 56 59 58 55 54 47 40 41 45 40
41 41 41 40 41 44 52 60 66 70 64 49 41 40 41 42 35 22 14 15 47 44 40 30 45 53 54 65 54 45 57 49 42 53 58 55 54 60 56 53 49 42 38 40 40
41 40 41 40 42 47 54 60 66 66 58 46 41 41 41 32 14 7 13 16 45 48 34 30 44 51 52 63 65 48 59 65 42 55 51 58 56 57 60 53 51 45 41 38 35
40 41 41 40 42 48 55 61 66 62 50 46 42 40 29 14 12 13 16 13 40 37 34 37 40 49 52 55 63 52 55 45 45 48 53 47 56 61 60 58 52 48 44 42 43
35 40 38 40 43 49 54 60 63 55 47 42 41 32 18 16 14 11 11 13 37 37 39 37 36 50 44 49 59 52 56 58 33 53 52 48 49 55 63 63 56 51 48 46 45
33 38 36 40 45 48 54 59 57 49 44 41 34 22 14 13 17 14 5 17 40 40 44 43 35 49 45 37 50 52 51 34 40 45 41 48 42 40 52 51 51 48 45 45 47
31 38 33 39 45 48 53 57 50 47 40 34 27 15 13 11 17 7 5 27 37 36 40 36 36 46 33 37 47 51 56 54 41 41 32 27 34 42 39 45 49 46 40 37 39
31 35 31 39 45 46 51 54 45 38 35 29 19 14 15 9 9 8 18 29 36 34 50 31 48 37 41 39 35 36 39 41 45 34 37 21 22 31 46 39 40 36 34 30 30
28 31 31 38 41 44 49 48 44 34 28 20 19 24 23 25 21 21 23 24 30 29 38 34 52 32 36 38 29 28 32 32 38 35 35 25 21 35 29 39 42 46 46 38 31
35 27 31 35 39 42 46 44 39 30 22 13 14 15 16 14 16 23 23 25 26 34 26 33 44 29 38 30 32 24 21 21 22 31 32 25 20 34 33 29 27 28 36 37 34
39 23 29 33 36 38 42 43 32 24 15 9 16 14 16 22 18 23 22 20 28 25 26 26 26 27 27 29 24 15 22 24 20 22 24 25 27 28 28 29 30 35 39 37 39
28 23 28 30 32 35 37 39 25 19 16 8 8 15 11 18 13 10 16 21 25 26 30 33 28 23 34 30 28 16 20 27 24 24 23 23 22 20 20 20 27 34 35 36 37
19 24 27 25 27 31 34 34 24 17 18 14 8 11 9 13 19 13 14 19 19 26 35 30 24 29 33 34 32 23 20 24 26 34 22 22 23 20 15 14 15 18 25 26 24
17 22 24 21 23 26 31 30 19 15 16 15 10 11 13 13 8 11 15 24 22 23 32 28 22 24 26 25 25 25 20 27 29 31 27 26 26 20 18 17 18 20 23 22 22
17 24 17 16 18 21 28 26 18 13 12 13 12 12 16 11 6 6 10 22 21 25 27 22 21 25 22 23 23 24 27 28 27 23 22 22 24 25 25 24 24 26 26 28 29
16 22 14 10 11 18 25 23 18 12 10 13 11 9 14 13 9 7 7 11 18 23 29 23 19 15 16 16 21 29 32 31 27 26 27 27 27 27 28 28 29 27 25 25 24
20 19 13 4 8 16 22 23 19 14 14 14 13 11 11 14 5 7 9 9 13 19 16 18 11 8 9 13 13 15 19 26 28 25 23 25 26 26 29 32 31 28 29 27 29
22 18 12 3 6 13 20 23 17 15 18 16 14 15 11 13 6 8 13 10 9 9 10 13 13 9 5 7 13 15 13 15 18 20 23 26 28 31 35 33 34 33 32 29 28
26 19 13 7 9 10 18 22 20 15 16 16 12 12 11 16 13 16 14 13 13 12 6 6 12 10 3 6 10 10 13 15 16 19 22 25 24 24 24 26 28 29 30 28 26
26 22 14 11 12 10 16 20 21 18 16 15 14 11 10 7 9 14 18 16 14 17 18 18 19 19 15 13 14 13 14 16 16 18 20 26 28 28 27 27 28 26 25 27 29
27 23 17 14 15 11 15 19 22 25 18 13 14 13 13 11 13 13 15 20 15 13 14 16 16 14 11 12 14 14 15 18 16 20 23 24 27 31 30 28 24 22 26 29 30
31 24 19 18 17 12 14 16 21 26 23 15 14 11 12 12 12 12 11 11 11 10 10 9 10 11 11 10 10 11 12 13 13 14 14 19 22 23 20 21 23 26 28 26 26
Wind_Direction
304 308 310 312 312 312 314 313 316 317 322 325 328 330 318 294 283 278 279 287 296 283 262 225 210 199 205 204 205 208 209 209 207 206 206 207 213 218 229 230 229 218 196 191 196
304 307 310 314 313 311 315 314 316 320 323 328 331 327 311 294 286 285 287 296 274 211 182 176 196 193 199 199 199 205 209 210 207 205 206 204 212 215 222 223 233 231 218 214 192
307 307 312 316 314 314 314 313 318 321 325 330 331 322 309 296 292 287 291 307 201 203 192 195 191 194 195 193 190 205 207 200 201 204 206 204 206 209 221 231 236 243 235 229 230
307 309 315 317 317 316 313 313 319 322 328 331 329 320 307 300 295 295 294 294 198 188 214 209 199 191 198 193 197 208 198 205 204 201 206 208 209 213 216 224 233 238 243 242 234
308 311 316 318 317 316 312 315 320 325 329 332 327 319 309 305 302 298 292 258 200 197 187 197 195 197 194 191 194 203 199 196 203 204 206 211 210 212 216 217 227 238 242 247 243
309 312 317 318 318 316 314 317 322 327 331 331 326 317 311 306 306 298 291 234 203 192 182 197 195 195 193 189 188 195 200 198 190 205 207 210 211 211 214 215 224 229 235 245 248
311 313 317 320 318 314 316 320 325 329 332 331 325 317 312 312 309 296 286 228 196 191 201 197 196 194 191 187 183 192 201 194 193 206 212 210 211 212 216 217 220 225 231 238 243
310 314 317 319 317 315 318 323 327 330 332 332 325 320 317 317 312 307 305 231 195 194 201 190 194 192 190 197 199 201 197 197 195 193 191 211 210 214 216 216 219 224 231 236 237
315 315 318 320 316 316 321 324 328 332 333 333 328 324 325 329 325 305 290 236 199 188 178 198 192 190 189 195 198 197 201 188 205 201 201 210 216 215 216 218 218 220 226 232 238
314 314 317 318 315 317 323 326 328 333 337 335 329 331 333 336 325 334 289 218 191 183 185 183 189 189 186 195 196 192 199 189 187 192 202 207 187 213 217 220 220 219 220 229 237
308 314 315 315 314 319 324 327 331 336 339 338 338 349 347 349 351 339 301 180 175 180 174 169 180 185 186 193 197 199 203 182 201 186 187 223 212 208 215 218 222 222 223 227 236
299 311 312 310 316 321 324 328 335 341 342 341 347 10 10 25 345 337 180 158 168 180 174 175 176 180 190 197 195 204 207 208 196 198 193 199 201 209 206 212 218 223 224 227 231
299 310 306 308 318 320 323 329 342 347 346 350 13 15 4 0 1 107 130 148 165 178 184 167 170 173 181 192 192 199 208 210 213 215 220 208 216 199 204 200 203 205 202 219 244
291 306 302 306 316 318 323 331 344 351 353 5 55 62 57 63 87 93 109 140 163 172 178 177 175 183 185 187 177 197 194 194 203 204 196 199 218 211 212 220 227 226 231 243 241
284 299 299 306 313 318 325 336 346 356 359 43 66 46 69 58 112 107 131 146 167 169 156 171 175 170 170 181 184 198 200 191 194 215 207 214 213 204 206 225 215 219 225 227 238
281 297 295 301 311 319 328 338 347 4 17 62 71 53 63 87 135 98 112 144 152 170 162 151 168 186 184 173 169 184 200 200 201 183 202 210 219 215 222 225 227 233 233 236 241
273 293 290 299 308 321 332 340 354 16 36 61 97 57 65 116 115 120 118 144 151 149 159 147 148 188 192 192 198 192 202 199 209 203 197 197 204 209 215 224 227 228 227 234 241
264 285 279 296 309 326 336 346 3 27 54 66 113 69 103 152 104 143 114 130 144 151 159 154 146 142 174 193 202 195 178 187 207 214 211 175 184 182 186 201 198 214 228 238 247
261 266 273 289 313 331 339 353 12 40 73 70 93 93 138 144 122 144 129 133 141 147 167 163 158 142 156 173 184 187 197 182 191 194 211 215 216 204 198 213 218 217 220 231 232
225 251 267 283 319 338 345 357 22 42 81 82 86 119 147 156 144 124 109 122 143 153 162 158 153 166 179 188 196 204 210 211 193 192 219 220 219 219 231 228 234 236 234 235 240
215 247 247 278 339 345 353 7 28 59 89 80 71 117 152 158 104 140 132 106 113 148 146 159 152 148 166 185 195 203 211 222 224 224 230 228 226 223 224 222 220 223 231 234 234
211 228 225 280 4 356 358 13 24 73 93 102 87 107 147 177 121 129 154 126 140 157 161 161 170 173 179 183 180 191 205 212 217 217 219 220 225 220 223 225 226 230 241 238 239
224 211 206 130 35 3 8 18 31 71 85 107 103 97 168 153 166 165 163 169 184 149 145 185 189 173 199 222 221 222 218 213 215 216 225 227 226 227 230 235 240 241 237 239 241
217 196 190 134 77 24 20 23 30 63 89 91 110 116 116 183 197 187 170 184 181 182 195 201 200 218 235 222 203 223 236 231 226 223 222 228 232 230 232 232 232 236 238 238 238
203 186 172 137 92 56 39 26 30 53 90 100 98 111 146 131 150 170 193 194 208 216 230 233 234 240 252 244 229 244 237 234 227 230 232 229 238 242 240 233 231 237 243 240 239
202 182 165 132 106 81 54 38 40 39 64 113 107 100 150 155 161 173 186 196 205 208 217 225 228 225 235 229 235 241 247 243 237 235 230 230 234 241 246 251 254 248 247 245 247
189 179 162 138 119 96 71 48 48 44 48 84 121 120 113 156 181 190 189 195 203 206 212 216 225 229 226 229 234 229 229 231 233 239 227 234 242 252 252 254 247 244 246 252 254
Height
5765 5759 5754 5749 5743 5736 5730 5721 5714 5704 5691 5680 5669 5658 5652 5648 5644 5643 5641 5638 5630 5617 5606 5612 5624 5642 5656 5670 5685 5697 5705 5712 5727 5735 5746 5759 5764 5770 5777 5781 5786 5794 5800 5811 5815
5758 5752 5746 5740 5735 5728 5721 5714 5703 5693 5681 5670 5658 5649 5644 5640 5637 5633 5630 5624 5614 5611 5609 5610 5620 5632 5646 5661 5676 5683 5697 5708 5723 5735 5744 5755 5758 5767 5775 5778 5783 5787 5794 5799 5808
5751 5746 5739 5734 5727 5720 5713 5705 5694 5683 5670 5658 5647 5640 5635 5631 5628 5622 5618 5615 5610 5609 5610 5615 5617 5629 5641 5654 5671 5683 5692 5702 5714 5726 5736 5748 5753 5758 5767 5773 5780 5786 5794 5801 5803
5743 5740 5733 5727 5720 5712 5705 5695 5685 5673 5661 5648 5638 5631 5626 5621 5617 5612 5606 5605 5603 5605 5608 5612 5618 5627 5636 5649 5665 5675 5688 5699 5710 5721 5730 5740 5747 5754 5763 5771 5777 5784 5790 5793 5798
5737 5732 5727 5719 5711 5705 5696 5686 5675 5664 5651 5638 5629 5622 5616 5610 5605 5597 5593 5594 5596 5600 5603 5608 5616 5625 5635 5649 5665 5675 5686 5695 5705 5716 5725 5733 5743 5751 5760 5767 5774 5780 5787 5790 5794
5731 5726 5720 5714 5706 5697 5688 5678 5667 5655 5642 5630 5621 5614 5605 5597 5592 5584 5580 5582 5587 5594 5601 5606 5613 5623 5634 5647 5653 5668 5684 5694 5701 5712 5720 5728 5738 5746 5752 5763 5770 5777 5782 5785 5788
5725 5720 5714 5707 5700 5690 5681 5670 5659 5646 5633 5622 5615 5605 5596 5589 5581 5574 5572 5574 5580 5590 5596 5602 5610 5620 5631 5643 5652 5667 5677 5688 5699 5710 5716 5723 5733 5740 5748 5758 5766 5773 5777 5781 5787
5718 5715 5708 5702 5694 5683 5675 5663 5652 5639 5626 5615 5607 5597 5587 5579 5575 5573 5570 5569 5574 5585 5593 5601 5609 5619 5630 5640 5649 5659 5672 5680 5688 5700 5706 5718 5728 5735 5743 5752 5761 5769 5775 5779 5783
5714 5709 5703 5696 5687 5678 5668 5657 5646 5632 5619 5610 5600 5589 5580 5575 5573 5571 5567 5566 5571 5583 5591 5599 5607 5618 5630 5638 5648 5655 5668 5681 5689 5697 5699 5713 5722 5729 5738 5745 5755 5763 5770 5774 5777
5707 5703 5698 5692 5681 5673 5662 5652 5640 5626 5615 5604 5593 5585 5577 5574 5568 5566 5563 5563 5570 5581 5592 5600 5607 5617 5629 5638 5646 5657 5665 5676 5687 5695 5702 5709 5710 5720 5730 5739 5746 5756 5762 5768 5772
5700 5696 5692 5686 5677 5668 5657 5647 5636 5622 5611 5599 5589 5580 5575 5572 5565 5562 5560 5562 5571 5582 5593 5601 5610 5620 5630 5640 5650 5660 5665 5675 5683 5691 5701 5708 5709 5717 5724 5733 5741 5750 5758 5763 5767
5694 5690 5687 5681 5672 5663 5653 5642 5629 5617 5608 5596 5587 5581 5576 5570 5565 5560 5561 5566 5575 5585 5594 5604 5612 5624 5633 5641 5647 5651 5657 5664 5674 5684 5692 5698 5704 5712 5721 5729 5737 5743 5751 5758 5761
5688 5684 5680 5676 5668 5660 5650 5639 5625 5613 5606 5596 5587 5581 5576 5571 5566 5564 5567 5571 5580 5588 5597 5606 5616 5623 5631 5639 5645 5655 5662 5671 5679 5686 5690 5697 5704 5711 5717 5725 5733 5739 5744 5752 5759
5680 5677 5675 5670 5665 5656 5648 5636 5622 5613 5605 5598 5591 5586 5580 5576 5574 5574 5575 5581 5587 5593 5601 5608 5616 5624 5632 5641 5650 5657 5663 5668 5675 5683 5688 5694 5700 5706 5715 5723 5730 5737 5742 5747 5752
5672 5671 5670 5665 5660 5653 5645 5632 5621 5614 5607 5600 5595 5591 5585 5585 5584 5583 5586 5591 5596 5601 5607 5613 5620 5627 5635 5644 5652 5657 5661 5668 5674 5679 5686 5694 5700 5706 5713 5719 5725 5731 5737 5741 5746
5666 5665 5664 5661 5656 5649 5641 5629 5620 5614 5605 5601 5599 5594 5594 5591 5589 5590 5595 5598 5602 5606 5612 5618 5625 5632 5638 5645 5649 5655 5662 5668 5674 5680 5686 5692 5699 5706 5711 5716 5720 5725 5731 5736 5740
5660 5661 5658 5657 5653 5645 5638 5627 5620 5612 5605 5603 5601 5599 5599 5598 5598 5598 5601 5603 5607 5612 5616 5622 5630 5634 5639 5645 5652 5658 5662 5667 5673 5679 5686 5691 5697 5702 5705 5709 5714 5720 5725 5730 5734
5653 5656 5654 5652 5648 5642 5635 5626 5616 5610 5607 5604 5603 5602 5603 5603 5604 5604 5607 5609 5612 5616 5620 5626 5632 5632 5639 5647 5656 5661 5664 5669 5672 5680 5686 5690 5695 5698 5703 5708 5712 5716 5720 5725 5727
5646 5650 5650 5648 5644 5639 5633 5624 5615 5611 5610 5607 5605 5606 5607 5608 5610 5611 5613 5616 5617 5619 5627 5631 5636 5638 5645 5651 5657 5660 5666 5670 5674 5677 5684 5689 5694 5697 5701 5706 5708 5711 5716 5719 5722
5639 5644 5645 5644 5641 5636 5631 5622 5615 5612 5610 5611 5610 5610 5612 5613 5615 5616 5618 5621 5624 5626 5631 5637 5640 5644 5649 5653 5658 5662 5666 5669 5673 5677 5682 5686 5690 5692 5698 5702 5704 5708 5711 5714 5716
5632 5638 5640 5640 5637 5635 5629 5620 5616 5612 5612 5611 5611 5612 5614 5615 5618 5620 5624 5626 5629 5632 5636 5640 5645 5648 5651 5653 5655 5661 5664 5668 5672 5676 5677 5682 5687 5691 5693 5695 5698 5702 5705 5708 5709
5626 5632 5635 5636 5635 5632 5627 5619 5616 5613 5613 5613 5613 5613 5616 5617 5621 5623 5628 5631 5634 5638 5640 5643 5645 5649 5653 5655 5658 5660 5663 5665 5668 5672 5675 5679 5684 5686 5686 5688 5692 5695 5698 5700 5700
5620 5626 5630 5632 5633 5630 5626 5621 5617 5613 5614 5615 5616 5617 5619 5622 5625 5627 5630 5634 5637 5639 5642 5645 5647 5650 5653 5656 5657 5659 5662 5665 5666 5669 5672 5676 5679 5679 5681 5683 5685 5688 5690 5693 5694
5616 5622 5627 5629 5630 5630 5625 5622 5618 5615 5615 5616 5618 5619 5623 5625 5628 5630 5632 5637 5639 5642 5644 5647 5648 5650 5653 5655 5656 5658 5660 5662 5663 5665 5669 5670 5670 5673 5677 5679 5680 5682 5684 5686 5688
5613 5617 5623 5626 5628 5628 5626 5623 5619 5616 5616 5616 5618 5620 5623 5626 5627 5630 5633 5637 5639 5641 5644 5646 5648 5650 5652 5653 5655 5656 5658 5659 5662 5663 5665 5667 5666 5668 5669 5672 5674 5676 5677 5678 5678
5610 5614 5619 5623 5626 5627 5626 5624 5621 5616 5617 5618 5619 5621 5623 5626 5629 5631 5634 5637 5640 5641 5643 5644 5646 5648 5650 5651 5654 5655 5656 5657 5659 5660 5661 5661 5661 5662 5665 5666 5668 5669 5670 5670 5670
5605 5610 5616 5621 5624 5626 5626 5626 5623 5620 5618 5618 5619 5622 5623 5626 5629 5631 5634 5637 5639 5641 5642 5643 5645 5646 5649 5650 5652 5654 5654 5654 5655 5655 5657 5656 5657 5657 5657 5658 5658 5660 5661 5662 5663